Regional Weather Roundup
Issued by NWS Sioux Falls, SD

Home | Current Version | Previous Version | Text Only | Print | Product List | Glossary Off
Versions: 1 2 3 4 5 6 7 8 9 10 11 12 13 14 15 16 17 18 19 20 21 22 23 24 25 26 27 28 29 30 31 32 33 34 35 36 37 38 39 40 41 42 43 44 45 46 47 48 49 50

000
ASUS43 KFSD 211310
RWRFSD

WEATHER ROUNDUP FOR SE SOUTH DAKOTA/SW MINNESOTA/NW IOWA
NATIONAL WEATHER SERVICE SIOUX FALLS SD
800 AM CDT MON AUG 21 2017

NOTE: "FAIR" INDICATES FEW OR NO CLOUDS BELOW 12,000 FEET WITH NO
SIGNIFICANT WEATHER AND OR OBSTRUCTIONS TO VISIBILITY.


SDZ038>040-050-052>070-211400-
SOUTHEAST SOUTH DAKOTA

CITY           SKY/WX    TMP DP  RH WIND       PRES   REMARKS
BROOKINGS      CLOUDY    65  61  87 SE6       29.99F
CHAMBERLAIN    CLOUDY    65  65 100 NE6       29.99R
HURON          CLOUDY    64  61  90 N5        29.99R
MADISON        CLOUDY    64  64 100 SE7       30.00F
MITCHELL       CLOUDY    66  65  96 E6        29.97F
SIOUX FALLS    CLOUDY    68  66  93 CALM      29.98F
WINNER         CLOUDY    64  62  93 NE7       29.97R
YANKTON        PTSUNNY   70  64  81 SE9       29.97F
$$

MNZ071-072-080-081-089-090-097-098-211400-
SOUTHWEST MINNESOTA

CITY           SKY/WX    TMP DP  RH WIND       PRES   REMARKS
FAIRMONT       SUNNY     69  64  84 SE10      29.99F
JACKSON        SUNNY     68  63  83 CALM      30.00S
LUVERNE        MOSUNNY   66  63  88 CALM      29.99F
MARSHALL       CLOUDY    64  63  94 SE5       30.00F FOG
MONTEVIDEO     CLOUDY    61  61 100 SE5       30.01F
PIPESTONE      CLOUDY    66  64  94 SE5       30.00F FOG
REDWOOD FALLS  PTSUNNY   65  62  90 E6        30.01S
TRACY          CLOUDY    64  64  98 CALM      30.00F
WINDOM         SUNNY     68  66  94 E6        30.00R
WORTHINGTON    CLOUDY    67  66  97 S6        30.00F
$$

IAZ001>003-012>014-020>022-031-032-NEZ013-014-SDZ071-211400-
NORTHWEST IOWA

CITY           SKY/WX    TMP DP  RH WIND       PRES   REMARKS
DENISON        CLOUDY    66  63  88 SE12      30.03
ESTHERVILLE    SUNNY     66  66 100 S8        29.98F
ORANGE CITY    CLOUDY    70  70 100 S7        29.99F
SHELDON        CLOUDY    68  66  94 S6        29.98S
SIOUX CITY     CLOUDY    69  65  86 S14       29.99R
SPENCER        SUNNY     67  65  93 S9        29.99F
STORM LAKE     CLOUDY    66  63  88 S14G23    29.99F
$$

ABBREVIATIONS USED IN REMARKS
   TC - TEMPERATURE IN CELSIUS
  WCI - WIND CHILL INDEX
   HX - HEAT INDEX
  VSB - VISIBILITY




USA.gov is the U.S. government's official web portal to all federal, state and local government web resources and services.